Flight Information

DEPARTURE
YAKIMA, WA
Elevation:
1098
Runways:
4/22 - 3835x150 - ASPH-P
9/27 - 7604x150 - ASPH-E
ATIS:
125.25
Clearance Delivery:
121.9
Ground:
121.9
Tower:
YAKIMA TOW ER 133.25
DESTINATION
,
Elevation:
TPA:
1000 (est.)


6626.7 NM67° True-19° Var47° HDG

Flight Plan:
(click to file on line)

1. Type
2. Aircraft Identification
3. Aircraft Type / Special Equipment
4. True Airspeed
kts
5. Departure Airport
(ICAO code)
6. Arriving Airport
(ICAO code)
7. Cruising Altitude
ft
8. Alternate Airport
(ICAO code)
9. Route of Flight
10. Remarks


00:00:00 Departure ATIS: Destination ATIS:

Clearance Limit:
Route:
Altitude: Expect in minutes
Frequency:
Transponder: (7500 Hijack / 7600 Lost Comms / 7700 Emergency)


KYKM 110353Z 31006KT 10SM BKN085 05/M06 A3025 RMK AO2 SLP248 T00501056
Time: 2021-04-11T03:53:00Z
1618115120
Winds: 310 @ 6 kts
Visibility: 10.0 sm
Clouds (AGL): BKN 8500
Temperature: 5.0 C
Dew Point: -5.6 C
Pressure: 30.250984 in Hgbr


Notes:

Data extracted from FAA Digital Chart Supplement. Effective: 0901Z Thursday, Feb 25, 2021 to 0901Z Thursday, APR 22, 2021
Current ATIS data is provided courtisy of PilotEdge.